Simultaneous Nadir Overpasses (SNOs) Predictions

Prediction of SNOs between GOES-14 and NPP Satellite Orbit:

Table of predicted SNOs for the next 14.0 days since TLE Epoch: 12/26/2020
Index Date Time (GOES-14) GOES-14 Lat,Lon NPP Lat,Lon Distance(km) Time Diff (sec)
1 12/26/2020 08:32:25 -0.08,-104.37 0.38,-106.53 245.42 80
2 12/27/2020 08:11:00 -0.07,-104.37 -0.62,-102.00 270.60 80
3 12/28/2020 20:32:55 0.07,-104.08 -0.65,-107.29 365.56 80
4 12/29/2020 20:16:51 0.07,-104.08 0.36,-102.76 150.84 80
5 12/31/2020 08:38:40 -0.07,-104.36 0.74,-108.05 419.31 80
6 01/01/2021 08:17:16 -0.07,-104.36 -0.27,-103.52 96.50 80
7 01/03/2021 20:20:27 0.07,-104.06 0.01,-104.27 24.57 80
8 01/04/2021 20:04:22 0.07,-104.06 1.03, -99.74 491.69 80
9 01/06/2021 08:26:11 -0.08,-104.35 0.07,-105.03 78.02 80
10 01/07/2021 08:04:47 -0.07,-104.34 -0.94,-100.50 437.90 80
11 01/08/2021 20:26:42 0.07,-104.04 -0.32,-105.79 199.43 80
